EW9056 Weather Reports


time (UTC)temp
C
wind
direction
speed
KPH
gust
KPH
rain 1hr
cm
rain 24hr
cm
rain mn
cm
humidity
%
barometer
mb
20260906230003 18 320 4.8 11.3 0.00 0.05 0.03 71 1014.8
20260906224603 18 338 4.8 12.9 0.00 0.05 0.03 72 1015.0
20260906223059 18 13 4.8 14.5 0.00 0.05 0.03 73 1015.1
20260906221555 18 355 6.4 14.5 0.00 0.05 0.03 72 1015.1
20260906220053 18 342 9.7 17.7 0.00 0.05 0.03 72 1015.0
20260906214552 17 37 6.4 19.3 0.00 0.05 0.03 74 1015.2
20260906213054 17 323 12.9 20.9 0.00 0.05 0.03 74 1015.1
20260906211547 17 33 14.5 24.1 0.00 0.05 0.03 74 1015.1
20260906210046 17 44 14.5 19.3 0.00 0.05 0.03 76 1015.3
20260906204546 17 41 11.3 20.9 0.00 0.05 0.03 75 1015.4
20260906203045 17 27 9.7 22.5 0.00 0.05 0.03 74 1015.4
20260906201604 17 34 11.3 20.9 0.00 0.05 0.03 74 1015.3
20260906200039 17 27 9.7 22.5 0.00 0.05 0.03 73 1015.5
20260906194547 18 349 11.3 25.7 0.00 0.05 0.03 71 1015.3
20260906193040 17 20 17.7 29.0 0.00 0.05 0.03 71 1015.1
20260906191532 17 34 16.1 30.6 0.00 0.05 0.03 72 1015.1
20260906190029 17 17 16.1 27.4 0.00 0.05 0.03 72 1015.4
20260906184522 16 11 12.9 32.2 0.00 0.05 0.03 74 1015.5
20260906183020 16 32 19.3 33.8 0.00 0.05 0.03 75 1015.5
20260906181550 15 53 25.7 32.2 0.00 0.05 0.03 79 1015.5
20260906180042 13 23 14.5 22.5 0.00 0.05 0.03 84 1016.3
20260906174508 13 307 9.7 19.3 0.00 0.05 0.03 85 1016.8
20260906173008 13 38 11.3 20.9 0.00 0.05 0.03 86 1016.9
20260906171505 13 38 11.3 19.3 0.00 0.05 0.03 87 1016.9
20260906170004 13 4 8.0 17.7 0.03 0.05 0.03 88 1016.9
20260906164506 13 8 6.4 19.3 0.03 0.05 0.03 88 1017.1
20260906163003 13 32 9.7 19.3 0.03 0.05 0.03 91 1017.1
20260906161605 13 39 9.7 19.3 0.03 0.05 0.03 91 1016.9
20260906160058 13 359 6.4 11.3 0.00 0.03 0.00 90 1017.2
20260906154557 13 354 4.8 11.3 0.00 0.03 0.00 89 1017.5
20260906153111 13 304 8.0 14.5 0.00 0.03 0.00 86 1017.8
20260906151555 14 326 4.8 11.3 0.00 0.03 0.00 89 1017.7
20260906150057 14 22 3.2 11.3 0.00 0.03 0.00 89 1017.7
20260906144559 13 30 8.0 14.5 0.00 0.03 0.00 90 1017.6
20260906143049 13 30 11.3 16.1 0.00 0.03 0.00 91 1017.3
20260906141516 12 48 8.0 12.9 0.00 0.03 0.00 92 1017.6
20260906140019 12 20 3.2 9.7 0.00 0.05 0.00 93 1017.8
20260906134512 12 40 9.7 14.5 0.00 0.05 0.00 93 1017.4
20260906133012 12 18 4.8 11.3 0.00 0.05 0.00 93 1017.3
20260906131511 12 33 8.0 12.9 0.00 0.05 0.00 93 1017.4
20260906130015 12 25 4.8 9.7 0.00 0.05 0.00 93 1017.6
20260906124508 11 345 1.6 14.5 0.00 0.05 0.00 93 1017.7
20260906123019 11 293 6.4 14.5 0.00 0.05 0.00 93 1017.4
20260906121505 11 52 11.3 16.1 0.00 0.05 0.00 92 1017.4
20260906120005 12 330 6.4 14.5 0.00 0.05 0.00 92 1017.6
20260906114502 12 348 6.4 16.1 0.00 0.05 0.00 92 1017.5
20260906113002 12 43 8.0 16.1 0.00 0.05 0.00 93 1017.6
20260906111625 12 358 6.4 17.7 0.00 0.05 0.00 92 1017.7
20260906110100 12 38 11.3 19.3 0.00 0.05 0.00 92 1017.7
20260906104601 12 1 11.3 19.3 0.00 0.05 0.00 92 1017.6
20260906103056 12 18 12.9 19.3 0.00 0.05 0.00 92 1017.7
20260906101555 12 33 11.3 17.7 0.00 0.05 0.00 92 1017.9
20260906100053 11 8 9.7 22.5 0.00 0.05 0.00 92 1017.7
20260906094548 11 34 9.7 17.7 0.00 0.05 0.00 92 1017.6
20260906093054 11 20 9.7 20.9 0.00 0.05 0.00 92 1017.7
20260906091543 11 3 12.9 20.9 0.00 0.05 0.00 92 1017.8
20260906090041 11 11 12.9 19.3 0.00 0.05 0.00 92 1018.1
20260906084537 11 27 9.7 22.5 0.00 0.05 0.00 91 1018.2
20260906083035 11 1 8.0 19.3 0.00 0.05 0.00 91 1018.4
20260906081546 12 56 9.7 22.5 0.00 0.05 0.00 90 1018.3
20260906080029 12 30 11.3 25.7 0.00 0.05 0.00 89 1018.4
20260906074627 12 30 16.1 24.1 0.00 0.05 0.00 89 1018.4
20260906073058 12 18 14.5 27.4 0.00 0.05 0.00 88 1018.6
20260906071550 12 44 16.1 25.7 0.00 0.05 0.00 88 1018.7
20260906070055 12 348 12.9 20.9 0.00 0.05 0.00 88 1018.9
20260906064545 12 357 8.0 19.3 0.00 0.05 0.00 88 1019.3
20260906064543 12 35 8.0 19.3 0.00 0.05 0.00 88 1019.3
20260906063041 12 22 9.7 22.5 0.00 0.05 0.00 87 1019.2
20260906061547 12 339 8.0 22.5 0.00 0.05 0.00 87 1019.1
20260906060033 12 45 9.7 19.3 0.00 0.05 0.05 87 1019.2
20260906054533 13 16 9.7 22.5 0.00 0.05 0.05 86 1019.1
20260906053037 12 13 11.3 25.7 0.00 0.05 0.05 86 1019.0
20260906051532 12 335 14.5 29.0 0.00 0.05 0.05 86 1018.9
20260906050032 13 27 12.9 24.1 0.00 0.05 0.05 86 1018.9
20260906044528 12 21 8.0 19.3 0.00 0.05 0.05 86 1019.2
20260906043039 12 15 12.9 25.7 0.03 0.05 0.05 86 1018.7
20260906041627 13 30 12.9 22.5 0.03 0.05 0.05 85 1018.3
20260906040026 13 8 11.3 24.1 0.03 0.05 0.05 84 1018.6
20260906034527 13 358 16.1 30.6 0.03 0.05 0.05 82 1018.6
20260906033025 15 338 20.9 29.0 0.00 0.03 0.03 72 1018.8
20260906031521 14 10 12.9 25.7 0.00 0.03 0.03 73 1018.2
20260906030019 14 30 17.7 29.0 0.00 0.03 0.03 73 1017.7
20260906024518 14 348 14.5 29.0 0.00 0.03 0.03 71 1017.6
20260906023019 15 12 16.1 29.0 0.00 0.03 0.03 70 1017.5
20260906021518 15 344 16.1 27.4 0.00 0.03 0.03 69 1017.4
20260906020015 15 63 16.1 30.6 0.00 0.03 0.03 69 1017.7
20260906014525 16 2 16.1 30.6 0.00 0.03 0.03 67 1017.6
20260906013015 16 316 12.9 27.4 0.00 0.03 0.03 65 1017.5
20260906011514 17 321 11.3 24.1 0.00 0.03 0.03 62 1017.6
20260906010044 18 360 12.9 20.9 0.00 0.03 0.03 59 1017.5
20260906004544 19 356 12.9 27.4 0.00 0.03 0.03 55 1017.7
20260906003040 20 24 12.9 27.4 0.00 0.03 0.03 54 1017.7
20260906001540 20 313 12.9 27.4 0.00 0.03 0.03 52 1017.6
20260906000042 20 346 11.3 27.4 0.00 0.03 0.03 52 1017.9
20260905234551 21 45 12.9 22.5 0.00 0.03 0.03 49 1018.2
20260905233037 22 15 12.9 24.1 0.00 0.03 0.03 46 1018.2
20260905231536 22 44 9.7 22.5 0.00 0.03 0.03 44 1017.8
20260905230042 22 24 12.9 22.5 0.00 0.03 0.03 44 1017.6